Total_Precipitation_Accumulation
3.74 3.93 4.56 4.37 3.61 3.37 3.40 3.36 3.41 3.33 3.32 3.42 3.39 3.28 3.14 3.02 2.81 2.84 2.84 2.87 2.90 3.08 3.28 3.41 3.48 3.50 3.40 3.28 3.21 3.17 3.03 2.81 3.14 3.28 3.36 3.34 3.23 3.26 3.38 3.50 3.60 2.66 2.53
3.09 3.15 3.71 3.60 3.33 3.33 3.24 3.28 3.31 3.20 3.24 3.34 3.36 3.26 3.07 2.91 2.86 2.81 2.77 2.86 2.97 3.08 3.32 3.38 3.24 3.11 2.91 2.79 2.86 3.01 3.00 2.97 3.31 3.53 3.67 3.62 3.56 3.53 3.57 3.59 3.60 2.47 2.34
2.50 2.55 2.87 3.07 2.91 2.95 2.93 2.86 2.86 2.87 3.12 3.20 3.22 3.27 3.19 2.99 2.96 2.90 2.76 2.96 3.10 3.03 3.15 3.10 2.93 2.73 2.54 2.46 2.58 2.94 3.03 3.22 3.75 4.01 4.37 3.85 3.30 3.70 3.64 3.57 3.19 2.44 2.30
2.06 2.20 2.33 2.75 2.62 2.47 2.42 2.47 2.66 2.67 2.68 2.79 3.01 3.26 3.35 3.24 3.11 3.05 2.93 3.09 3.15 3.01 3.10 2.97 2.66 2.37 2.26 2.28 2.54 2.79 2.96 3.30 3.82 4.38 4.58 3.55 2.71 3.14 3.22 3.06 2.92 2.53 2.35
1.79 1.95 2.31 2.44 2.33 2.22 2.19 2.25 2.52 2.41 2.40 2.54 2.68 3.01 3.27 3.35 3.43 3.35 3.10 3.08 2.94 2.86 2.91 2.78 2.42 2.26 2.17 2.16 2.46 2.63 2.79 3.30 3.94 4.13 3.63 3.46 3.17 2.98 2.77 2.71 2.72 2.46 2.22
1.57 1.75 2.11 2.26 2.12 2.01 2.03 2.18 2.42 2.30 2.35 2.47 2.48 2.84 3.07 3.11 3.18 3.18 3.11 2.93 2.75 2.66 2.64 2.76 2.36 2.34 2.21 2.19 2.43 2.59 2.77 3.28 3.69 3.29 2.84 2.95 2.70 2.72 2.67 2.75 2.76 2.59 2.25
1.52 1.80 2.01 2.17 2.09 2.01 2.07 2.18 2.31 2.30 2.28 2.34 2.50 2.80 2.90 2.88 3.05 3.08 2.96 2.63 2.41 2.48 2.50 2.54 2.40 2.31 2.29 2.35 2.40 2.52 2.84 3.26 3.05 2.64 2.58 2.76 2.24 2.18 2.56 2.87 3.14 2.95 2.50
1.34 1.66 1.85 2.06 2.10 2.03 2.01 2.06 2.17 2.06 2.05 2.22 2.44 2.62 2.56 2.53 2.66 2.72 2.70 2.55 2.27 2.36 2.30 2.23 2.37 2.32 2.53 2.60 2.48 2.39 2.58 2.81 2.41 2.21 2.30 2.41 1.91 2.08 2.61 3.02 3.38 3.25 2.87
1.28 1.50 1.82 2.09 2.11 2.05 2.00 1.94 2.08 2.13 2.04 2.11 2.24 2.38 2.46 2.46 2.39 2.32 2.42 2.45 2.26 2.19 2.09 2.10 2.30 2.49 2.60 2.54 2.32 2.25 2.39 2.71 2.48 2.24 1.97 2.04 1.87 2.17 2.77 3.08 3.28 3.21 2.99
1.65 1.71 1.77 1.74 1.80 1.88 1.92 2.01 2.12 2.20 2.16 2.16 2.22 2.32 2.45 2.39 2.28 2.18 2.01 2.20 2.24 2.16 2.08 2.06 2.25 2.42 2.33 2.25 2.16 2.28 2.49 2.58 2.38 2.28 2.14 1.86 1.91 2.36 2.89 3.04 3.22 3.10 2.92
2.25 2.32 2.07 1.81 1.75 1.87 1.79 1.87 2.36 2.56 2.46 2.55 2.64 2.62 2.71 2.72 2.51 2.47 2.32 2.47 2.36 2.36 2.39 2.35 2.40 2.57 2.35 2.05 2.19 2.47 2.46 2.40 2.68 2.72 2.17 1.78 2.09 2.74 3.10 3.15 3.14 2.98 2.91
2.71 2.77 2.39 2.05 1.85 1.73 1.50 1.99 2.58 2.49 2.61 2.78 2.85 2.67 2.95 3.16 3.04 2.47 2.77 3.12 3.08 3.16 3.02 2.88 2.83 2.63 2.52 2.29 2.68 3.02 2.53 2.70 3.00 2.82 2.28 2.12 2.65 3.23 3.65 3.58 3.22 2.91 2.77
3.04 2.94 2.52 2.24 2.05 1.78 1.90 1.99 2.33 2.62 2.94 2.89 2.68 2.62 3.03 2.93 2.71 2.70 2.94 3.13 3.30 3.15 3.02 2.98 3.08 2.86 3.12 3.56 3.66 3.37 2.84 2.92 3.02 2.89 2.52 2.50 3.15 3.93 4.36 4.13 3.58 3.16 2.93
3.18 2.91 2.63 2.42 2.21 2.05 1.98 2.03 2.19 2.34 2.65 2.80 2.84 2.71 2.95 3.40 3.36 3.28 3.41 3.38 3.48 3.60 3.97 3.70 3.82 3.60 3.62 3.68 3.79 3.50 3.18 3.23 3.21 3.45 3.51 3.26 3.57 4.13 4.72 4.61 4.02 3.58 3.44
3.31 3.11 2.87 2.54 2.57 2.47 2.59 2.68 2.35 2.45 2.61 2.91 3.17 3.09 3.10 3.53 3.56 3.51 3.54 3.65 3.40 3.44 3.74 4.11 3.90 3.94 4.11 3.99 3.68 3.44 3.48 3.48 3.51 3.54 3.65 3.78 3.69 3.87 4.56 4.80 4.43 4.05 3.93
3.73 3.71 3.45 3.07 3.10 3.11 3.01 3.05 2.98 2.68 2.93 3.06 3.22 3.14 3.24 3.53 3.74 3.70 3.49 3.62 3.45 3.38 3.56 3.89 3.87 4.33 4.34 4.36 3.95 3.66 3.60 3.60 3.55 3.59 3.61 3.97 3.87 3.68 4.11 4.58 4.73 4.62 4.43
3.84 4.00 3.95 3.78 3.87 3.87 3.65 3.41 3.21 3.10 3.09 3.40 3.54 3.40 3.43 3.48 3.75 3.73 3.65 3.52 3.52 3.54 3.77 3.90 3.94 4.32 4.29 4.27 4.21 3.89 3.71 3.41 3.25 3.37 3.35 3.56 3.50 3.43 3.70 4.15 4.53 4.69 4.76
3.96 4.22 4.43 4.31 4.38 4.32 4.29 4.10 3.74 3.62 3.62 3.58 3.49 3.52 3.40 3.51 3.65 3.93 3.74 3.44 3.53 3.51 3.71 4.14 4.27 4.51 4.68 4.65 4.38 4.00 3.77 3.67 3.37 3.31 3.12 3.08 3.37 2.99 3.30 3.78 4.15 4.38 4.92
4.26 4.68 5.11 5.21 5.14 4.89 4.62 4.52 4.40 4.25 4.03 3.73 3.66 3.57 3.40 3.37 3.38 3.75 3.71 3.64 3.63 3.86 3.92 3.70 4.40 4.74 4.87 4.76 3.97 3.81 3.43 3.40 3.27 2.99 3.03 2.96 3.22 3.25 3.31 3.23 3.36 3.70 4.66
4.72 5.38 5.53 5.56 5.85 5.66 5.37 5.26 5.09 4.71 4.31 3.97 3.80 3.66 3.34 3.29 3.25 3.67 3.50 3.52 3.61 4.01 4.20 4.29 4.78 4.81 4.61 4.71 3.90 3.58 3.12 2.79 2.79 2.86 2.65 2.71 2.85 2.73 3.01 3.44 3.77 3.45 3.96
4.58 5.24 5.91 6.15 6.05 5.91 5.69 5.28 4.95 4.59 4.37 4.00 3.58 3.31 3.25 3.24 3.41 3.98 3.60 3.97 3.84 3.92 4.02 4.18 4.50 4.55 4.29 4.51 4.60 3.94 3.00 2.41 2.40 2.31 2.33 2.48 2.39 2.39 2.77 3.44 3.72 3.76 3.55
3.98 4.45 4.96 5.34 5.06 4.75 4.64 4.63 4.54 4.51 4.07 3.90 3.72 3.75 3.42 3.44 3.49 3.59 3.89 3.81 3.86 4.03 3.82 3.88 4.30 4.21 3.76 4.12 4.61 4.73 3.80 3.10 2.47 1.89 2.09 2.20 2.33 2.52 2.46 2.55 3.00 3.61 3.59
3.39 3.54 3.75 4.05 4.15 4.22 4.35 4.52 4.71 4.88 4.53 4.36 4.25 4.10 3.60 3.51 3.50 3.64 3.63 3.61 3.77 3.69 3.72 3.75 3.93 4.09 3.97 3.90 4.28 4.74 4.16 3.47 2.76 2.13 2.01 2.00 2.30 2.61 2.52 2.54 2.77 3.22 3.46
2.74 2.98 3.51 3.78 3.95 4.21 4.55 4.63 4.63 4.59 4.56 4.50 4.53 4.43 4.26 3.97 3.73 3.56 3.42 3.40 3.43 3.28 3.46 3.21 3.53 3.81 4.04 3.72 3.82 3.79 3.66 3.64 3.51 2.78 2.22 2.08 2.29 2.48 2.57 2.51 2.65 3.01 3.30
2.30 2.63 3.25 3.85 4.15 4.39 4.65 4.71 4.97 4.83 4.69 4.51 4.52 4.59 4.39 4.06 3.69 3.31 3.35 3.37 3.36 3.17 3.07 3.03 3.36 3.33 3.46 3.51 3.57 3.55 3.62 3.58 3.40 3.16 2.73 2.46 2.31 2.03 2.05 2.20 2.42 2.75 3.03
2.42 2.74 3.24 3.79 4.25 4.44 4.48 4.48 4.62 4.67 4.68 4.42 4.29 3.97 3.58 3.42 3.29 3.01 3.04 3.12 3.02 3.00 3.03 2.99 3.07 3.09 3.20 3.31 3.35 3.33 3.49 3.45 3.41 3.48 3.09 2.79 2.54 2.15 1.97 2.04 2.22 2.48 2.71